Weather History for Tyler, TX

Change the Weather History Date:

Thursday, February 7, 2013

  Actual Average Record
Temperature  
Mean Temperature 62 °F 49 °F  
Max Temperature 67 °F 59 °F 82 °F (1950)
Min Temperature 56 °F 39 °F 11 °F (1983)
Degree Days  
Heating Degree Days 3 16  
Month to date heating degree days 47 118  
Since 1 July heating degree days 1261 1596  
Cooling Degree Days 0 0  
Month to date cooling degree days 0 0  
Year to date cooling degree days 10 4  
Growing Degree Days 12 (Base 50)    
Moisture  
Dew Point 56 °F    
Average Humidity 83    
Maximum Humidity 93    
Minimum Humidity 73    
Precipitation  
Precipitation 0.00 in 0.13 in 1.10 in (1903)
Month to date precipitation 0.22 0.87  
Year to date precipitation 3.96 3.93  
Snow  
Snow 0.00 in - - ()
Month to date snowfall 0.0  
Since 1 July snowfall 1.0  
Snow Depth 0.00 in    
Sea Level Pressure  
Sea Level Pressure 29.93 in    
Wind  
Wind Speed 9 mph (South)    
Max Wind Speed 18 mph    
Max Gust Speed 24 mph    
Visibility 9 miles    
Events Rain    
T = Trace of Precipitation, MM = Missing Value Source: NWS Daily Summary

Daily Weather History Graph

Daily Weather History Graph

Search for Another Location

Airport:

Trip Planner

Search our weather history database for the weather conditions in past years. The results will help you decide how hot, cold, wet, or windy it might be!

Date:

Astronomy

Feb. 07, 2013 Rise Set
Actual Time 7:11 AM CST 6:00 PM CST
Civil Twilight 6:45 AM CST 6:26 PM CST
Nautical Twilight 6:16 AM CST 6:55 PM CST
Astronomical Twilight 5:47 AM CST 7:24 PM CST
Moon 4:46 AM CST (2/7) 3:30 PM CST (2/7)
Length of Visible Light 11h 40m
Length of Day
10h 49m
Waning Crescent, 9% of the Moon is Illuminated
Feb 7
Waning Crescent
Feb 10
New
Feb 17
First Quarter
Feb 25
Full
Mar 4
Last Quarter

Hourly Weather History & Observations

Time (CST) Temp. Dew Point Humidity Pressure Visibility Wind Dir Wind Speed Gust Speed Precip Events Conditions
12:53 AM 59.0 °F 55.9 °F 90% 29.94 in 8.0 mi SE 8.1 mph - N/A   Overcast
1:13 AM 57.2 °F 55.4 °F 94% 29.94 in 9.0 mi SE 8.1 mph - N/A   Mostly Cloudy
1:34 AM 57.2 °F 55.4 °F 94% 29.94 in 9.0 mi SE 6.9 mph - N/A   Mostly Cloudy
1:53 AM 57.9 °F 55.9 °F 93% 29.93 in 8.0 mi SSE 8.1 mph - N/A   Overcast
2:53 AM 59.0 °F 55.9 °F 90% 29.93 in 9.0 mi SE 5.8 mph - N/A   Overcast
3:01 AM 57.2 °F 55.4 °F 94% 29.93 in 9.0 mi SE 6.9 mph - N/A   Overcast
3:53 AM 57.9 °F 55.9 °F 93% 29.92 in 9.0 mi South 5.8 mph - N/A   Overcast
4:53 AM 57.0 °F 55.0 °F 93% 29.91 in 7.0 mi SE 3.5 mph - N/A   Overcast
5:53 AM 57.0 °F 55.0 °F 93% 29.91 in 6.0 mi South 4.6 mph - N/A   Overcast
6:53 AM 57.9 °F 55.9 °F 93% 29.92 in 7.0 mi South 5.8 mph - N/A   Overcast
7:53 AM 57.9 °F 55.9 °F 93% 29.94 in 8.0 mi South 4.6 mph - N/A   Overcast
8:19 AM 59.0 °F 55.4 °F 88% 29.96 in 10.0 mi SSW 6.9 mph - N/A   Overcast
8:35 AM 57.2 °F 55.4 °F 94% 29.96 in 4.0 mi SSW 8.1 mph - 0.00 in Rain Light Rain
8:53 AM 57.9 °F 55.9 °F 93% 29.95 in 3.0 mi SSW 8.1 mph - 0.00 in   Overcast
9:53 AM 59.0 °F 57.0 °F 93% 29.95 in 3.0 mi South 10.4 mph - N/A   Overcast
10:53 AM 60.1 °F 57.0 °F 90% 29.95 in 6.0 mi South 10.4 mph - N/A   Overcast
11:53 AM 60.1 °F 57.0 °F 90% 29.94 in 8.0 mi SSW 9.2 mph - 0.00 in   Overcast
12:01 PM 60.8 °F 57.2 °F 88% 29.95 in 10.0 mi SSW 8.1 mph - N/A   Overcast
12:22 PM 60.8 °F 57.2 °F 88% 29.94 in 10.0 mi South 11.5 mph - N/A   Overcast
12:53 PM 62.1 °F 57.0 °F 84% 29.91 in 10.0 mi SSW 13.8 mph 19.6 mph N/A   Overcast
1:53 PM 64.0 °F 57.0 °F 78% 29.89 in 10.0 mi South 11.5 mph - N/A   Overcast
2:53 PM 64.9 °F 57.0 °F 75% 29.88 in 10.0 mi SSW 13.8 mph - N/A   Overcast
3:53 PM 66.0 °F 57.0 °F 73% 29.87 in 10.0 mi South 10.4 mph - N/A   Partly Cloudy
4:23 PM 66.2 °F 57.2 °F 73% 29.88 in 10.0 mi South 10.4 mph - N/A   Mostly Cloudy
4:46 PM 64.4 °F 55.4 °F 73% 29.88 in 10.0 mi South 9.2 mph - N/A   Scattered Clouds
4:53 PM 64.9 °F 55.9 °F 73% 29.86 in 10.0 mi South 9.2 mph - N/A   Partly Cloudy
5:34 PM 64.4 °F 55.4 °F 73% 29.88 in 10.0 mi South 11.5 mph - N/A   Mostly Cloudy
5:43 PM 64.4 °F 55.4 °F 73% 29.88 in 10.0 mi South 10.4 mph - N/A   Scattered Clouds
5:53 PM 64.0 °F 55.9 °F 75% 29.88 in 10.0 mi South 8.1 mph - N/A   Partly Cloudy
6:53 PM 60.1 °F 55.0 °F 83% 29.90 in 10.0 mi South 5.8 mph - N/A   Clear
7:53 PM 59.0 °F 55.9 °F 90% 29.91 in 10.0 mi SSW 6.9 mph - N/A   Clear
8:53 PM 60.1 °F 55.9 °F 86% 29.93 in 10.0 mi SW 8.1 mph - N/A   Clear
9:53 PM 60.1 °F 53.1 °F 78% 29.97 in 10.0 mi NW 12.7 mph - 0.01 in   Scattered Clouds
10:04 PM 60.8 °F 53.6 °F 77% 29.99 in 10.0 mi NW 17.3 mph 23.0 mph N/A   Mostly Cloudy
10:53 PM 57.0 °F 52.0 °F 83% 29.99 in 10.0 mi NW 10.4 mph - N/A   Scattered Clouds
11:53 PM 55.9 °F 50.0 °F 80% 30.02 in 10.0 mi NNW 13.8 mph - N/A   Overcast